Change the Weather History Date:

Thursday, July 25, 2013

  Actual Average Record
Temperature  
Mean Temperature 80 °F 82 °F  
Max Temperature 91 °F 92 °F 103 °F (1952)
Min Temperature 69 °F 72 °F 61 °F (1904)
Degree Days  
Heating Degree Days 0 0  
Month to date heating degree days 0 0  
Since 1 June heating degree days 0 0  
Since 1 July heating degree days 0 0  
Cooling Degree Days 15 17  
Month to date cooling degree days 377 418  
Year to date cooling degree days 1142 1198  
Since 1 June cooling degree days 824 840  
Growing Degree Days 30 (Base 50)    
Moisture  
Dew Point 69 °F    
Average Humidity 71    
Maximum Humidity 100    
Minimum Humidity 41    
Precipitation  
Precipitation 0.00 in 0.16 in 4.65 in (1975)
Month to date precipitation 1.84 3.89  
Year to date precipitation 39.88 32.12  
Sea Level Pressure  
Sea Level Pressure 29.98 in    
Wind  
Wind Speed 5 mph (NNW)    
Max Wind Speed 13 mph    
Max Gust Speed 17 mph    
Visibility 7 miles    
Events      
T = Trace of Precipitation, MM = Missing Value Source: NWS Daily Summary

Daily Weather History Graph

Daily Weather History Graph

Search for Another Location

Airport or City:

Trip Planner

Search our weather history database for the weather conditions in past years. The results will help you decide how hot, cold, wet, or windy it might be!

Date:

Astronomy

Jul. 25, 2013 Rise Set
Actual Time 6:10 AM CDT 8:02 PM CDT
Civil Twilight 5:43 AM CDT 8:29 PM CDT
Nautical Twilight 5:10 AM CDT 9:02 PM CDT
Astronomical Twilight 4:35 AM CDT 9:37 PM CDT
Moon 10:00 PM CDT (7/25) 9:24 AM CDT (7/25)
Length of Visible Light 14h 46m
Length of Day
13h 52m
Waning Gibbous, 88% of the Moon is Illuminated
Jul 25
Waning Gibbous
Jul 29
Last Quarter
Aug 6
New
Aug 14
First Quarter
Aug 20
Full

Hourly Weather History & Observations

Time (CDT) Temp. Heat Index Dew Point Humidity Pressure Visibility Wind Dir Wind Speed Gust Speed Precip Events Conditions
12:12 AM 73.4 °F - 71.6 °F 94% 29.94 in 10.0 mi Calm Calm - N/A   Partly Cloudy
12:54 AM 72.0 °F - 71.1 °F 97% 29.93 in 8.0 mi Calm Calm - N/A   Clear
1:54 AM 73.0 °F - 71.1 °F 93% 29.92 in 9.0 mi NNW 3.5 mph - N/A   Clear
2:25 AM 71.6 °F - 71.6 °F 100% 29.93 in 8.0 mi NNW 4.6 mph - N/A   Scattered Clouds
2:34 AM 71.6 °F - 71.6 °F 100% 29.93 in 6.0 mi Calm Calm - N/A   Mostly Cloudy
2:54 AM 72.0 °F - 71.1 °F 97% 29.92 in 2.5 mi North 4.6 mph - N/A   Overcast
3:03 AM 71.6 °F - 71.6 °F 100% 29.93 in 1.5 mi North 3.5 mph - N/A   Overcast
3:08 AM 71.6 °F - 71.6 °F 100% 29.93 in 3.0 mi NNW 3.5 mph - N/A   Overcast
3:38 AM 71.6 °F - 69.8 °F 94% 29.93 in 8.0 mi Calm Calm - N/A   Scattered Clouds
3:54 AM 71.1 °F - 70.0 °F 96% 29.92 in 2.0 mi Calm Calm - N/A   Scattered Clouds
4:01 AM 71.6 °F - 69.8 °F 94% 29.93 in 1.2 mi Calm Calm - N/A   Scattered Clouds
4:05 AM 71.6 °F - 71.6 °F 100% 29.94 in 2.0 mi Calm Calm - N/A   Mostly Cloudy
4:13 AM 71.6 °F - 69.8 °F 94% 29.94 in 4.0 mi Calm Calm - N/A   Mostly Cloudy
4:23 AM 69.8 °F - 69.8 °F 100% 29.94 in 2.5 mi Calm Calm - N/A   Mostly Cloudy
4:26 AM 69.8 °F - 69.8 °F 100% 29.94 in 0.8 mi Calm Calm - N/A   Mist
4:54 AM 70.0 °F - 69.1 °F 97% 29.94 in 0.8 mi Calm Calm - N/A   Mist
4:56 AM 69.8 °F - 69.8 °F 100% 29.95 in 1.2 mi Calm Calm - N/A   Partly Cloudy
4:59 AM 71.6 °F - 69.8 °F 94% 29.95 in 3.0 mi Calm Calm - N/A   Partly Cloudy
5:22 AM 69.8 °F - 69.8 °F 100% 29.96 in 2.5 mi Calm Calm - N/A   Clear
5:30 AM 69.8 °F - 69.8 °F 100% 29.97 in 6.0 mi Calm Calm - N/A   Clear
5:54 AM 70.0 °F - 69.1 °F 97% 29.96 in 8.0 mi Calm Calm - N/A   Partly Cloudy
6:04 AM 69.8 °F - 69.8 °F 100% 29.98 in 1.8 mi Calm Calm - N/A   Partly Cloudy
6:12 AM 69.8 °F - 68.0 °F 94% 29.98 in 3.0 mi Calm Calm - N/A   Partly Cloudy
6:54 AM 70.0 °F - 70.0 °F 100% 29.98 in 9.0 mi Calm Calm - N/A   Partly Cloudy
7:10 AM 71.6 °F - 69.8 °F 94% 29.99 in 9.0 mi Calm Calm - N/A   Mostly Cloudy
7:28 AM 73.4 °F - 71.6 °F 94% 30.00 in 7.0 mi West 3.5 mph - N/A   Overcast
7:54 AM 73.9 °F - 72.0 °F 93% 29.99 in 9.0 mi NNW 5.8 mph - N/A   Overcast
8:54 AM 75.0 °F - 73.0 °F 94% 30.00 in 6.0 mi NNW 5.8 mph - N/A   Overcast
9:09 AM 75.2 °F - 73.4 °F 94% 30.01 in 8.0 mi North 4.6 mph - N/A   Overcast
9:54 AM 80.1 °F 83.8 °F 72.0 °F 76% 30.01 in 10.0 mi North 4.6 mph - N/A   Scattered Clouds
10:54 AM 82.9 °F 88.0 °F 72.0 °F 69% 30.03 in 10.0 mi NW 6.9 mph - N/A   Scattered Clouds
11:45 AM 82.4 °F 87.2 °F 71.6 °F 70% 30.05 in 10.0 mi NNW 5.8 mph - N/A   Mostly Cloudy
11:54 AM 84.0 °F 89.6 °F 72.0 °F 67% 30.04 in 10.0 mi NNW 8.1 mph - N/A   Mostly Cloudy
12:17 PM 86.0 °F 90.4 °F 69.8 °F 58% 30.05 in 10.0 mi North 6.9 mph - N/A   Mostly Cloudy
12:54 PM 88.0 °F 92.9 °F 70.0 °F 55% 30.03 in 10.0 mi NNE 8.1 mph - N/A   Scattered Clouds
1:54 PM 88.0 °F 90.7 °F 66.9 °F 49% 30.03 in 10.0 mi North 8.1 mph - N/A   Scattered Clouds
2:54 PM 88.0 °F 89.3 °F 64.0 °F 45% 30.02 in 10.0 mi Calm Calm - N/A   Scattered Clouds
3:54 PM 90.0 °F 91.7 °F 64.9 °F 43% 30.02 in 10.0 mi North 6.9 mph 16.1 mph N/A   Scattered Clouds
4:54 PM 89.1 °F 89.3 °F 62.1 °F 40% 30.02 in 10.0 mi NW 11.5 mph - N/A   Scattered Clouds
5:54 PM 88.0 °F 88.4 °F 62.1 °F 42% 30.01 in 10.0 mi North 9.2 mph - N/A   Partly Cloudy
6:54 PM 84.0 °F 84.4 °F 61.0 °F 46% 30.02 in 10.0 mi North 8.1 mph - N/A   Partly Cloudy
7:54 PM 80.1 °F 81.7 °F 64.0 °F 58% 30.02 in 10.0 mi NNW 6.9 mph - N/A   Clear
8:54 PM 75.9 °F - 64.9 °F 69% 30.01 in 10.0 mi Calm Calm - N/A   Clear
9:54 PM 73.9 °F - 66.0 °F 76% 30.03 in 10.0 mi North 4.6 mph - N/A   Clear
10:54 PM 73.9 °F - 66.0 °F 76% 30.04 in 10.0 mi North 3.5 mph - N/A   Clear
11:54 PM 73.0 °F - 66.0 °F 79% 30.04 in 10.0 mi North 4.6 mph - N/A   Clear